Tri-Cities, TN

6:18 AM EDT on March 30, 2017 (GMT -0400)
Tri-Cities Regional Tennessee / Virginia

Weather History for KTRI - July, 2012

Change the Weather History Date:

Tuesday, July 3, 2012

  Actual Average Record
Temperature  
Mean Temperature 82 °F 74 °F  
Max Temperature 95 °F 85 °F 95 °F (1970)
Min Temperature 68 °F 64 °F 51 °F (2009)
Degree Days  
Heating Degree Days 0 0  
Month to date heating degree days 0 0  
Since 1 June heating degree days 5 11  
Since 1 July heating degree days 0 0  
Cooling Degree Days 17 9  
Month to date cooling degree days 52 27  
Year to date cooling degree days 446 306  
Since 1 June cooling degree days 284 233  
Growing Degree Days 31 (Base 50)    
Moisture  
Dew Point 65 °F    
Average Humidity 63    
Maximum Humidity 90    
Minimum Humidity 36    
Precipitation  
Precipitation T in 0.15 in 2.13 in (2002)
Month to date precipitation 0.32 0.43  
Year to date precipitation 18.31 21.72  
Snow  
Snow 0.00 in 0.00 in - ()
Month to date snowfall 0.0 0.0  
Since 1 June snowfall 0.0 0.0  
Since 1 July snowfall 0.0 0.0  
Snow Depth 0.00 in    
Sea Level Pressure  
Sea Level Pressure 30.00 in    
Wind  
Wind Speed 2 mph (West)    
Max Wind Speed 16 mph    
Max Gust Speed 29 mph    
Visibility 10 miles    
Events Thunderstorm    
T = Trace of Precipitation, MM = Missing Value Source: NWS Daily Summary

Daily Weather History Graph

Daily Weather History Graph

Search for Another Location

Airport or City:

Trip Planner

Search our weather history database for the weather conditions in past years. The results will help you decide how hot, cold, wet, or windy it might be!

Date:

Astronomy

Jul. 03, 2012 Rise Set
Actual Time 6:16 AM EDT 8:51 PM EDT
Civil Twilight 5:46 AM EDT 9:21 PM EDT
Nautical Twilight 5:08 AM EDT 9:59 PM EDT
Astronomical Twilight 4:26 AM EDT 10:41 PM EDT
Moon 8:47 PM EDT (7/3) 6:06 AM EDT (7/3)
Length of Visible Light 15h 35m
Length of Day
14h 35m
Full, 100% of the Moon is Illuminated
Jul 3
Full
Jul 3
Full
Jul 10
Last Quarter
Jul 19
New
Jul 26
First Quarter

Hourly Weather History & Observations

Time (EDT) Temp. Heat Index Dew Point Humidity Pressure Visibility Wind Dir Wind Speed Gust Speed Precip Events Conditions
12:53 AM 73.0 °F - 69.1 °F 87% 30.01 in 9.0 mi Calm Calm - N/A   Clear
1:53 AM 73.9 °F - 69.1 °F 85% 30.01 in 10.0 mi SSW 3.5 mph - N/A   Scattered Clouds
2:53 AM 73.9 °F - 66.9 °F 79% 30.01 in 10.0 mi SW 3.5 mph - N/A   Scattered Clouds
3:53 AM 71.1 °F - 66.0 °F 84% 30.00 in 10.0 mi Calm Calm - N/A   Scattered Clouds
4:53 AM 70.0 °F - 66.0 °F 87% 29.99 in 9.0 mi Calm Calm - N/A   Scattered Clouds
5:53 AM 69.1 °F - 64.9 °F 87% 30.01 in 8.0 mi Calm Calm - N/A   Mostly Cloudy
6:53 AM 69.1 °F - 66.0 °F 90% 30.01 in 7.0 mi Calm Calm - N/A   Scattered Clouds
7:53 AM 73.0 °F - 66.9 °F 81% 30.02 in 10.0 mi Calm Calm - N/A   Scattered Clouds
8:53 AM 75.9 °F - 66.0 °F 71% 30.04 in 10.0 mi Calm Calm - N/A   Partly Cloudy
9:53 AM 80.1 °F 81.9 °F 64.9 °F 60% 30.04 in 10.0 mi SSE 3.5 mph - N/A   Scattered Clouds
10:53 AM 84.0 °F 85.4 °F 64.0 °F 51% 30.03 in 10.0 mi Calm Calm - N/A   Partly Cloudy
11:53 AM 87.1 °F 87.5 °F 62.1 °F 43% 30.01 in 10.0 mi Calm Calm - N/A   Partly Cloudy
12:53 PM 91.0 °F 90.9 °F 61.0 °F 36% 30.00 in 10.0 mi NW 5.8 mph - N/A   Partly Cloudy
1:53 PM 91.9 °F 92.9 °F 63.0 °F 38% 29.97 in 10.0 mi Calm Calm - N/A   Partly Cloudy
2:53 PM 91.9 °F 93.3 °F 64.0 °F 39% 29.94 in 10.0 mi WNW 8.1 mph - N/A   Scattered Clouds
3:23 PM 93.2 °F 94.1 °F 62.6 °F 36% 30.02 in 10.0 mi Variable 6.9 mph - N/A Thunderstorm Thunderstorm
3:53 PM 93.9 °F 94.8 °F 62.1 °F 35% 29.93 in 10.0 mi SSW 5.8 mph - N/A Thunderstorm Thunderstorm
4:53 PM 78.1 °F - 61.0 °F 56% 29.98 in 10.0 mi ENE 12.7 mph 28.8 mph N/A Thunderstorm Thunderstorm
5:53 PM 75.0 °F - 61.0 °F 62% 29.95 in 10.0 mi Calm Calm - N/A Thunderstorm Thunderstorm
6:25 PM 78.8 °F - 64.4 °F 61% 30.03 in 10.0 mi NW 3.5 mph - N/A   Mostly Cloudy
6:35 PM 77.0 °F - 66.2 °F 69% 30.03 in 10.0 mi Calm Calm - N/A Thunderstorm Thunderstorm
6:53 PM 75.0 °F - 66.0 °F 73% 29.96 in 9.0 mi ENE 3.5 mph - N/A   Mostly Cloudy
7:53 PM 73.0 °F - 64.9 °F 76% 29.98 in 10.0 mi NNW 3.5 mph - N/A   Mostly Cloudy
8:53 PM 72.0 °F - 66.0 °F 81% 29.98 in 10.0 mi Calm Calm - 0.00 in   Mostly Cloudy
9:53 PM 70.0 °F - 66.0 °F 87% 29.96 in 10.0 mi Calm Calm - N/A   Mostly Cloudy
10:53 PM 70.0 °F - 66.0 °F 87% 29.99 in 9.0 mi Calm Calm - N/A   Mostly Cloudy
11:53 PM 70.0 °F - 66.0 °F 87% 29.98 in 10.0 mi Calm Calm - N/A   Mostly Cloudy